Nausori, Fiji

6:00 AM +12 on September 23, 2017 (GMT +1200)
Nausori International

Weather History for NFNA - January, 2011

Change the Weather History Date:

Sunday, January 2, 2011

  Actual Average Record
Temperature  
Mean Temperature 80 °F -  
Max Temperature 87 °F 87 °F - ()
Min Temperature 72 °F 75 °F - ()
Cooling Degree Days 14    
Growing Degree Days 30 (Base 50)    
Moisture  
Dew Point 72 °F    
Average Humidity 79    
Maximum Humidity 100    
Minimum Humidity 54    
Precipitation  
Precipitation 0.12 in 0.41 in - ()
Sea Level Pressure  
Sea Level Pressure 29.85 in    
Wind  
Wind Speed 3 mph ()    
Max Wind Speed 12 mph    
Max Gust Speed -    
Visibility 12.0 miles    
Events      
T = Trace of Precipitation, MM = Missing Value Source: Averaged Metar Reports

Daily Weather History Graph

Daily Weather History Graph

Search for Another Location

Airport or City:

Trip Planner

Search our weather history database for the weather conditions in past years. The results will help you decide how hot, cold, wet, or windy it might be!

Date:

Astronomy

Jan. 02, 2011 Rise Set
Actual Time 6:33 AM +13 7:45 PM +13
Civil Twilight 6:09 AM +13 8:09 PM +13
Nautical Twilight 5:40 AM +13 8:37 PM +13
Astronomical Twilight 5:11 AM +13 9:07 PM +13
Moon 4:11 AM +13 (1/2) 5:48 PM +13 (1/2)
Length of Visible Light 13h 59m
Length of Day
13h 11m
Waning Crescent, 6% of the Moon is Illuminated
Jan 2
Waning Crescent
Jan 4
New
Jan 13
First Quarter
Jan 20
Full
Jan 27
Last Quarter

Hourly Weather History & Observations

Time (+13) Temp. Heat Index Dew Point Humidity Pressure Visibility Wind Dir Wind Speed Gust Speed Precip Events Conditions
12:00 AM 75.2 °F - 73.4 °F 94% 29.92 in 24.9 mi Calm Calm - N/A   Partly Cloudy
1:00 AM 75 °F - 74 °F 95% 29.90 in 12 mi Calm Calm - -   Partly Cloudy
1:00 AM 75.2 °F - 73.4 °F 94% 29.89 in 24.9 mi Calm Calm - N/A   Partly Cloudy
2:00 AM 75.2 °F - 71.6 °F 89% 29.86 in 24.9 mi Calm Calm - N/A   Overcast
3:00 AM 73.4 °F - 71.6 °F 94% 29.83 in 24.9 mi Calm Calm - N/A   Partly Cloudy
4:00 AM 73 °F - 72 °F 96% 29.84 in 12 mi Calm Calm - -   Partly Cloudy
4:00 AM 73.4 °F - 71.6 °F 94% 29.83 in 24.9 mi Calm Calm - N/A   Partly Cloudy
5:00 AM 73.4 °F - 71.6 °F 94% 29.83 in 24.9 mi Calm Calm - N/A   Partly Cloudy
6:00 AM 73.4 °F - 71.6 °F 94% 29.83 in 31.1 mi Calm Calm - N/A   Scattered Clouds
7:00 AM 72 °F - 72 °F 100% 29.85 in 31 mi Calm Calm - -   Partly Cloudy
7:00 AM 73.4 °F - 71.6 °F 94% 29.83 in 31.1 mi Calm Calm - N/A   Scattered Clouds
8:00 AM 73.4 °F - 71.6 °F 94% 29.86 in 31.1 mi Calm Calm - N/A   Scattered Clouds
9:00 AM 77.0 °F - 75.2 °F 94% 29.86 in 31.1 mi Calm Calm - N/A   Mostly Cloudy
10:00 AM 83 °F - 73 °F 65% 29.88 in 31 mi ESE 11.5 mph - -   Partly Cloudy
10:00 AM 84.2 °F 90.9 °F 73.4 °F 70% 29.86 in 31.1 mi ESE 11.5 mph - N/A   Mostly Cloudy
11:00 AM 84.2 °F 90.9 °F 73.4 °F 70% 29.86 in 31.1 mi East 11.5 mph - N/A   Mostly Cloudy
12:00 PM 86.0 °F 90.4 °F 69.8 °F 58% 29.86 in 31.1 mi East 11.5 mph - N/A   Scattered Clouds
1:00 PM 85 °F - 72 °F 56% 29.85 in 31 mi East 11.5 mph - -   Partly Cloudy
1:00 PM 86.0 °F 91.8 °F 71.6 °F 62% 29.83 in 31.1 mi East 11.5 mph - N/A   Scattered Clouds
2:00 PM 87.8 °F 93.8 °F 71.6 °F 58% 29.83 in 31.1 mi East 11.5 mph - N/A   Scattered Clouds
3:00 PM 87.8 °F 93.8 °F 71.6 °F 58% 29.83 in 31.1 mi East 11.5 mph - N/A   Scattered Clouds
4:00 PM 87 °F - 73 °F 54% 29.82 in 31 mi East 11.5 mph - -   Partly Cloudy
4:00 PM 87.8 °F 95.6 °F 73.4 °F 62% 29.80 in 31.1 mi East 11.5 mph - N/A   Scattered Clouds
5:00 PM 86.0 °F 91.8 °F 71.6 °F 62% 29.80 in 31.1 mi East 11.5 mph - N/A   Scattered Clouds
6:00 PM 84.2 °F 90.9 °F 73.4 °F 70% 29.80 in 31.1 mi East 11.5 mph - N/A   Mostly Cloudy
7:00 PM 83 °F - 71 °F 60% 29.83 in 31 mi East 5.8 mph - -   Partly Cloudy
7:00 PM 82.4 °F 87.2 °F 71.6 °F 70% 29.83 in 31.1 mi East 5.8 mph - N/A   Mostly Cloudy
8:00 PM 82.4 °F 87.2 °F 71.6 °F 70% 29.83 in 31.1 mi East 5.8 mph - N/A   Mostly Cloudy
9:00 PM 78.8 °F - 73.4 °F 83% 29.86 in 31.1 mi Calm Calm - N/A   Mostly Cloudy
10:00 PM 78 °F - 74 °F 84% 29.88 in 31 mi Calm Calm - -   Partly Cloudy
10:00 PM 78.8 °F - 73.4 °F 83% 29.86 in 31.1 mi Calm Calm - N/A   Scattered Clouds
11:00 PM 75.2 °F - 73.4 °F 94% 29.86 in 31.1 mi Calm Calm - N/A   Partly Cloudy